Fort Campbell, KY

12:06 AM CST on February 25, 2018 (GMT -0600)
Campbell Army Air Field

Weather History for KHOP - September, 2013

Change the Weather History Date:

Friday, September 6, 2013

  Actual Average Record
Temperature  
Mean Temperature 72 °F -  
Max Temperature 86 °F 83 °F 96 °F (1998)
Min Temperature 59 °F 61 °F 53 °F (2017)
Cooling Degree Days 7    
Growing Degree Days 22 (Base 50)    
Moisture  
Dew Point 63 °F    
Average Humidity 88    
Maximum Humidity 100    
Minimum Humidity 48    
Precipitation  
Precipitation 0.00 in - - ()
Sea Level Pressure  
Sea Level Pressure 30.15 in    
Wind  
Wind Speed 2 mph (NE)    
Max Wind Speed 10 mph    
Max Gust Speed -    
Visibility 5 miles    
Events Fog    
Averages and records for this station are not official NWS values.
T = Trace of Precipitation, MM = Missing Value Source: NWS Daily Summary

Daily Weather History Graph

Daily Weather History Graph

Search for Another Location

Airport or City:

Trip Planner

Search our weather history database for the weather conditions in past years. The results will help you decide how hot, cold, wet, or windy it might be!

Date:

Astronomy

Sep. 06, 2013 Rise Set
Actual Time 6:25 AM CDT 7:10 PM CDT
Civil Twilight 5:59 AM CDT 7:36 PM CDT
Nautical Twilight 5:28 AM CDT 8:07 PM CDT
Astronomical Twilight 4:56 AM CDT 8:39 PM CDT
Moon 7:33 AM CDT (9/6) 7:38 PM CDT (9/6)
Length of Visible Light 13h 37m
Length of Day
12h 45m
New Moon, 2% of the Moon is Illuminated
Sep 6
New Moon
Sep 12
First Quarter
Sep 19
Full
Sep 26
Last Quarter
Oct 4
New

Hourly Weather History & Observations

Time (CDT) Temp. Heat Index Dew Point Humidity Pressure Visibility Wind Dir Wind Speed Gust Speed Precip Events Conditions
12:58 AM 67.1 °F - 66.7 °F 99% 30.17 in 10.0 mi Calm Calm - N/A   Clear
1:58 AM 64.6 °F - 64.4 °F 99% 30.17 in 10.0 mi Calm Calm - N/A   Clear
2:58 AM 63.3 °F - 63.3 °F 100% 30.16 in 10.0 mi Calm Calm - N/A   Clear
3:58 AM 61.9 °F - 61.9 °F 100% 30.14 in 8.0 mi North 3.5 mph - N/A   Clear
4:58 AM 63.7 °F - 63.7 °F 100% 30.14 in 10.0 mi Calm Calm - N/A   Clear
5:40 AM 62.6 °F - 62.6 °F 100% 30.16 in 2.5 mi Calm Calm - N/A   Clear
5:41 AM 62.6 °F - 62.6 °F 100% 30.16 in 1.8 mi Calm Calm - N/A   Clear
5:43 AM 60.8 °F - 60.8 °F 100% 30.16 in 1.0 mi Calm Calm - N/A   Clear
5:44 AM 60.8 °F - 60.8 °F 100% 30.16 in 0.8 mi Calm Calm - N/A   Clear
5:51 AM 60.8 °F - 60.8 °F 100% 30.16 in 0.8 mi Calm Calm - N/A   Clear
5:52 AM 60.8 °F - 60.8 °F 100% 30.16 in 1.0 mi Calm Calm - N/A   Clear
5:53 AM 60.8 °F - 60.8 °F 100% 30.16 in 1.2 mi Calm Calm - N/A   Clear
5:54 AM 60.8 °F - 60.8 °F 100% 30.16 in 1.8 mi Calm Calm - N/A   Clear
5:55 AM 60.8 °F - 60.8 °F 100% 30.16 in 3.0 mi Calm Calm - N/A   Clear
5:58 AM 61.0 °F - 61.0 °F 100% 30.16 in 9.0 mi Calm Calm - N/A   Clear
6:32 AM 60.8 °F - 60.8 °F 100% 30.17 in 2.5 mi NNE 1.2 mph - N/A   Clear
6:37 AM 60.8 °F - 60.8 °F 100% 30.17 in 1.0 mi Calm Calm - N/A   Clear
6:38 AM 60.8 °F - 60.8 °F 100% 30.17 in 0.8 mi NE 1.2 mph - N/A   Clear
6:39 AM 60.8 °F - 60.8 °F 100% 30.17 in 0.5 mi NE 1.2 mph - N/A Fog Fog
6:42 AM 60.8 °F - 60.8 °F 100% 30.17 in 0.2 mi NNE 2.3 mph - N/A Fog Fog
6:45 AM 59.0 °F - 59.0 °F 100% 30.17 in 0.2 mi NNE 2.3 mph - N/A Fog Fog
6:47 AM 59.0 °F - 59.0 °F 100% 30.17 in 0.2 mi NNE 3.5 mph - N/A Fog Fog
6:48 AM 60.8 °F - 60.8 °F 100% 30.17 in 0.5 mi North 3.5 mph - N/A Fog Fog
6:49 AM 60.8 °F - 60.8 °F 100% 30.17 in 0.5 mi North 3.5 mph - N/A Fog Fog
6:50 AM 60.8 °F - 60.8 °F 100% 30.17 in 0.8 mi NNE 3.5 mph - N/A   Clear
6:51 AM 60.8 °F - 60.8 °F 100% 30.17 in 1.0 mi NNE 2.3 mph - N/A   Clear
6:52 AM 60.8 °F - 60.8 °F 100% 30.17 in 1.2 mi NNE 2.3 mph - N/A   Clear
6:53 AM 60.8 °F - 60.8 °F 100% 30.17 in 2.0 mi NNE 2.3 mph - N/A   Clear
6:55 AM 60.8 °F - 60.8 °F 100% 30.17 in 3.0 mi NNE 2.3 mph - N/A   Clear
6:58 AM 60.3 °F - 60.3 °F 100% 30.18 in 6.0 mi NNE 2.3 mph - N/A   Clear
7:01 AM 60.8 °F - 60.8 °F 100% 30.18 in 2.0 mi NNE 2.3 mph - N/A   Clear
7:02 AM 60.8 °F - 60.8 °F 100% 30.18 in 1.8 mi NNE 2.3 mph - N/A   Clear
7:10 AM 62.6 °F - 62.6 °F 100% 30.18 in 2.0 mi NNE 1.2 mph - N/A   Clear
7:11 AM 62.6 °F - 62.6 °F 100% 30.18 in 4.0 mi NNE 2.3 mph - N/A   Clear
7:58 AM 65.7 °F - 65.7 °F 100% 30.18 in 10.0 mi NNE 3.5 mph - N/A   Clear
8:58 AM 73.8 °F - 68.0 °F 82% 30.18 in 10.0 mi Variable 3.5 mph - N/A   Clear
9:58 AM 78.8 °F - 66.9 °F 67% 30.18 in 10.0 mi East 6.9 mph - N/A   Clear
10:58 AM 81.5 °F 83.6 °F 65.8 °F 59% 30.17 in 10.0 mi East 8.1 mph - N/A   Clear
11:58 AM 83.3 °F 85.1 °F 65.3 °F 54% 30.16 in 10.0 mi East 10.4 mph - N/A   Clear
12:58 PM 84.4 °F 86.1 °F 65.1 °F 52% 30.15 in 10.0 mi ESE 6.9 mph - N/A   Clear
1:58 PM 84.9 °F 86.1 °F 63.9 °F 49% 30.12 in 10.0 mi Variable 5.8 mph - N/A   Clear
2:58 PM 85.3 °F 86.6 °F 64.0 °F 49% 30.10 in 10.0 mi East 9.2 mph - N/A   Clear
3:58 PM 85.6 °F 87.1 °F 64.6 °F 49% 30.08 in 10.0 mi ESE 5.8 mph - N/A   Clear
4:58 PM 85.6 °F 86.8 °F 64.0 °F 48% 30.08 in 10.0 mi North 4.6 mph - N/A   Clear
5:58 PM 84.7 °F 85.9 °F 63.5 °F 49% 30.07 in 10.0 mi East 4.6 mph - N/A   Clear
6:58 PM 81.5 °F 83.9 °F 67.1 °F 61% 30.08 in 10.0 mi Calm Calm - N/A   Clear
7:58 PM 76.8 °F - 67.6 °F 73% 30.08 in 10.0 mi NNE 1.2 mph - N/A   Clear
8:58 PM 75.2 °F - 66.2 °F 73% 30.08 in 10.0 mi East 1.2 mph - N/A   Clear
9:58 PM 74.1 °F - 67.1 °F 79% 30.08 in 10.0 mi SSW 2.3 mph - N/A   Clear
10:58 PM 72.5 °F - 66.7 °F 82% 30.08 in 10.0 mi East 2.3 mph - N/A   Clear
11:58 PM 70.0 °F - 66.6 °F 89% 30.07 in 10.0 mi East 1.2 mph - N/A   Clear